TITAN 3A TRANSTAGE R/B, 1359

Orbit data source: Space-Track

TITAN 3A TRANSTAGE R/B, 1359 is space debris in LEO originally from a launch on Thu, 06 May 1965 UTC via a TITAN IIIA launch vehicle from the Air Force Eastern Test Range (AFETR). Debris objects in space refer to the collection of defunct objects orbiting the Earth. Examples of debris include non-operational satellites, rocket bodies, and fragments generated from explosions, collisions, or faulty payload assembly.

Loading next visibility...
TITAN 3A TRANSTAGE R/B details
Identifier
1359, 1965-034A
Orbit
LEO
Last TLE update1 day ago
Origin
Flag of USUSAF SSD (US)
ManufacturerMartin Marietta
MissionSpacecraft
Bus & MotorUnknown
Mass2,302 kg wet, 124 kg dry
Launch date (UTC)
1965-05-06 (60 years ago)
Launch vehicle
TITAN IIIA
Launch site
Air Force Eastern Test Range (AFETR)
Object type
Payload
Rocket body
Debris
Shape & HBRCyl + 2 Nozzle, 5.99 m
Radar Cross Section18.358 m², Large (>1 m²)

Expand to show TLE details & history

TLE from 1 day ago
0 TITAN 3A TRANSTAGE R/B
1 01359U 65034A   25017.71231091  .00000009  00000-0 -26475-3 0  9992
2 01359  32.1189 201.9820 0496194 255.9342  98.5505  9.17133982  1331
Epoch: 2025-01-17T17:05Z
Definitive object data (Epoch: 2025-01-17T17:05:43.662Z)
Latitude-0.00001°
Longitude-171.82195°
Altitude3,355.704 km
Speed6.37 km/s
True Right ascension13h 27m 55s
True Declination0° 00' 00"
Sunlit
Object was in daylight at TLE epoch
Visualization TLE readout
Latitude26.69512°
Longitude-120.8888°
Altitude3,703.587 km
Speed6.146 km/s
Apparent Right ascension15h 40m 47s
Apparent Declination5° 34' 04"
Sunlit
Object is in daylight
Visualization observer readout
Local Sidereal Time17:56:56
Azimuth230.772° WSW
Elevation44.014°
Doppler factor1
Orbital elements
Apogee altitude3,743.818 km
Perigee altitude2,786.813 km
Semi-major axis9,643.453 km
Eccentricity0.0496194
Inclination32.1189°
RAAN201.982°
Arg. of periapsis255.9342°
True anomaly104.11313°
Mean anomaly98.5505°
Eccentric anomaly101.338°
Mean motion2.29189 °/min
BSTAR-0.00026475
Orbital period157.08 mins
Loading maneuver chart data...
Loading historical data...
Loading historical data...
Loading historical data...
Loading historical data...
Loading historical data...
Loading historical data...
Loading historical data...
Other satellites on launch #34 in the year 1965 (1965-05-06 UTC)

TITAN 3A TRANSTAGE R/B Visibility forecast

Observer location: undefined°, undefined

Span
Click to sort rows by Start time (UTC) header in descending order
Start Az.
Max El. time (UTC)
Max El. Az.
Max El.
End time (UTC)
End Az.
29 mins2025-01-18 17:03:59.709Z230.63° WSW2025-01-18 17:12:59.709Z167.374° S42.504°2025-01-18 17:32:59.709Z93.197° ESE
39 mins2025-01-18 19:45:59.709Z268.861° W2025-01-18 20:05:59.709Z189.66° SSW41.849°2025-01-18 20:24:59.709Z119.178° SE
32 mins2025-01-18 22:39:59.709Z272.366° WNW2025-01-18 22:55:59.709Z218.608° SW29.815°2025-01-18 23:11:59.709Z158.811° S
34 mins2025-01-19 13:35:59.709Z201.563° SSW2025-01-19 13:51:59.709Z142.268° SSE31.118°2025-01-19 14:09:59.709Z85.001° E
39 mins2025-01-19 16:23:59.709Z241.353° WSW2025-01-19 16:42:59.709Z164.972° S42.124°2025-01-19 17:02:59.709Z91.43° ESE
|